Regional Weather Roundup
Issued by NWS Wakefield, VA

Home | Current Version | Previous Version | Graphics & Text | Print | Product List | Glossary On
Versions: 1 2 3 4 5 6 7 8 9 10 11 12 13 14 15 16 17 18 19 20 21 22 23 24 25 26 27 28 29 30 31 32 33 34 35 36 37 38 39 40 41 42 43 44 45 46 47 48 49 50
000
ASUS41 KAKQ 021415
RWRAKQ

REGIONAL WEATHER ROUNDUP
NATIONAL WEATHER SERVICE WAKEFIELD VA
1000 AM EDT MON MAY 02 2016

Note: "fair" indicates few or no clouds below 12,000 feet with no
significant weather and/or obstructions to visibility. * = Denotes
station may not report precipitation (e.g., rain,snow,etc.),
thunder or fog.

VAZ042-051-052>054-056-021500-
NORTHERN VIRGINIA

CITY           SKY/WX    TMP DP  RH WIND       PRES   REMARKS
WASH NATIONAL  CLOUDY    58  56  93 S6        29.97S
DULLES         CLOUDY    59  57  93 S8        29.97R FOG
FORT BELVOIR   CLOUDY    58  57  95 SE5       29.97F
QUANTICO       CLOUDY    59  57  93 S5        29.98F
FREDERICKSBRG* FOG       59  59 100 E3        29.96F VSB 1
STAFFORD*      CLOUDY    59  58  97 CALM      30.01F FOG
WARRENTON      CLOUDY    61  57  86 S3        29.96F
CULPEPER*      CLOUDY    60  60 100 S3        29.98F
MANASSAS*      CLOUDY    59  59 100 S7        29.97R FOG
LEESBURG*      CLOUDY    59  59 100 S7        29.97S
WINCHESTER     FAIR      64  61  88 S9        29.94F
FRONT ROYAL*   FAIR      64  61  88 S6        29.93F
LURAY*         FAIR      64  64 100 SW7       29.96F
$$

VAZ048-049-060>072-079>083-021500-
CENTRAL AND SOUTH CENTRAL VIRGINIA

CITY           SKY/WX    TMP DP  RH WIND       PRES   REMARKS
RICHMOND       CLOUDY    69  66  90 SW6       29.98R
CHESTERFIELD*  CLOUDY    72  57  60 W5        29.99S
PETERSBURG*    PTSUNNY   74  67  78 SW13      29.98S
HANOVER        CLOUDY    66  64  93 CALM      29.99R FOG
TAPPAHANNOCK*  FOG       62  62 100 CALM      30.00R VSB 3/4
QUINTON*       CLOUDY    69  67  92 SW5       29.97R
CHARLOTTSVILLE CLOUDY    66  61  84 CALM      29.96F HAZE
GORDONSVILLE*  CLOUDY    64  63  94 CALM      29.97S
ORANGE*        CLOUDY    61  61 100 CALM      29.99S FOG
LOUISA*        CLOUDY    64  64 100 CALM      29.97S
BUMPASS*       CLOUDY    61  61 100 E3        29.98S VSB 3/4
FARMVILLE*     FAIR      71  69  93 SW7       29.96F
CREWE*         PTSUNNY   73  70  91 W7        29.97F
FORT PICKETT*  NOT AVBL
CHASE CITY*    CLOUDY    70  69  95 CALM      30.00S
CLARKSVILLE*   CLOUDY    72  68  88 SW8       30.00S
SOUTH HILL*    PTSUNNY   72  67  84 SW8       30.05F
LAWRENCEVILLE* CLOUDY    71  67  87 SW9       30.00S
EMPORIA*       CLOUDY    72  66  83 SW7       30.01S
$$

VAZ088>098-021500-
SOUTHEAST VIRGINIA

CITY           SKY/WX    TMP DP  RH WIND       PRES   REMARKS
NORFOLK        CLOUDY    73  65  75 SW12      29.98S
VIRGINIA BEACH PTSUNNY   77  66  68 SW14      29.98S
NORFOLK NAVAL  PTSUNNY   74  66  76 SW9       29.99F
WEST POINT*    CLOUDY    71  67  89 SW3       29.98S
SALUDA*        CLOUDY    69  68  96 SW3       29.96S
NEWPORT NEWS   PTSUNNY   73  67  81 W10       29.98S
LANGLEY AFB    PTSUNNY   74  67  80 W13       29.97S
FORT EUSTIS    CLOUDY    73  68  87 S5        29.97R
WILLIAMSBURG*  FAIR      75  68  78 SW6       29.98S
HR EXEC AP*    CLOUDY    73  68  83 SW9       30.01S
FRANKLIN*      PTSUNNY   73  66  79 SW9G16    30.00S
US460-WAKEFLD  PTSUNNY   74  66  76 SW8       29.98S
$$

VAZ020-022-025-037-045-021500-
WEST CENTRAL AND SOUTHWEST VIRGINIA

CITY           SKY/WX    TMP DP  RH WIND       PRES   REMARKS
STAUNTON*      FAIR      71  64  79 SW6       29.98F
WAYNESBORO*    FAIR      70  62  76 MISG      29.99S
HOT SPRINGS VA CLOUDY    61  61 100 W14       30.05S
LYNCHBURG      FAIR      69  64  84 VRB5      30.00F
DANVILLE       FAIR      72  66  81 SW9       30.01S
SOUTH BOSTON*  CLOUDY    71  69  94 SW6       30.00S
MARTINSVILLE   FAIR      70  63  78 CALM      30.03F
ROANOKE        FAIR      72  63  73 SW8       30.01F
BLACKSBURG     FAIR      66  63  90 W5        30.07F
DUBLIN*        PTSUNNY   71  66  83 SW5       30.06S
MARION*        CLOUDY    68  62  80 W13G21    30.09F
HILLSVILLE*    FAIR      67  60  79 SW3       30.06F
RICHLANDS*     CLOUDY    65  46  48 W7        30.08S
WISE*          PTSUNNY   68  61  77 SW9       30.08F
ABINGDON*      CLOUDY    69  64  84 W6        30.07S
$$

MDZ021>025-VAZ099-100-021500-
SOUTHERN MARYLAND AND THE DELMARVA PENINSULA

CITY           SKY/WX    TMP DP  RH WIND       PRES   REMARKS
PATUXENT RIVER DRZL/FOG  57  56  96 N6        29.99R VSB 1
BAY BRIDGE APT NOT AVBL
LEONARDTOWN    CLOUDY    57  55  94 E3        29.99F
DOVER          CLOUDY    53  53 100 SE8       29.97F FOG
GEORGETOWN     CLOUDY    54  54 100 E3        30.00S FOG
EASTON         FOG      N/A N/A N/A MISG      30.00F VSB 3/4
CAMBRIDGE      CLOUDY    54  54 100 E3        29.97F
SALISBURY      FOG       56  55  97 N5        29.99R VSB 3/4
OCEAN CITY     FOG       55  54  96 N5        29.99R VSB 1/2
WALLOPS ISLAND FOG       58  57  97 E3        29.98S VSB 3/4
ACCOMACK*      CLOUDY    68  50  52 SW5       29.97F
$$

NCZ012>017-030>032-021500-
NORTH CENTRAL AND EASTERN NORTH CAROLINA

CITY           SKY/WX    TMP DP  RH WIND       PRES   REMARKS
ROANOKE RAPIDS FAIR      72  66  83 SW9       30.01S
RALEIGH        PTSUNNY   75  67  76 SW15      30.03S
ELIZABETH CITY PTSUNNY   74  68  81 SW13      30.02S
AHOSKIE*       CLOUDY    73  67  82 CALM      30.02S
EDENTON*       PTSUNNY   74  70  85 SW9       30.04S
CURRITUCK*     PTSUNNY   73  69  88 SW10G17   30.02S
KILL DEVIL HLS PTSUNNY   75  70  83 SW12G17   30.02S
MANTEO         NOT AVBL
CAPE HATTERAS  PTSUNNY   71  68  90 SW9       30.07R
TARBORO*       PTSUNNY   73  66  79 SW6       30.03F
GOLDSBORO      CLOUDY    75  73  94 SW17      30.02F
WASHINGTON     MOSUNNY   74  68  81 W9        30.04F
GREENVILLE     PTSUNNY   77  70  78 SW9       30.05F
NEW BERN       CLOUDY    75  69  81 SW13      30.07S
WILMINGTON     CLOUDY    77  70  79 W12       30.06S
$$

VAZ048-021500-
ELSEWHERE

CITY           SKY/WX    TMP DP  RH WIND       PRES   REMARKS
HARRISBURG PA  CLOUDY    53  51  93 SE6       29.95R FOG
BALTIMORE      CLOUDY    56  55  97 SE3       29.96R FOG
ANNAPOLIS      CLOUDY    55  55 100 SE8       29.96F FOG
ANDREWS AFB    CLOUDY    56  56  99 SE6       29.95F
PHILADELPHIA   LGT RAIN  51  47  86 SE7       29.98F FOG
HENDERSON NC   MOSUNNY   73  68  82 SW8       30.01F
GREENSBORO     PTSUNNY   71  66  84 W10       30.02S
ROCKY MOUNT    MOSUNNY   75  67  76 SW12      30.02F
$$

VAZ100-021500-
MARINE

STATION/POSITION TIME  TEMP    WIND        PRES    WAVE   SWELL
                       AIR SEA DIR/SP/G            HT/PER HT/PER
                 (UTC) (F)     (DEG/KT/KT) (MB)    (FT/S) (FT/S)
BRANDYWINE LGT   1300   51     100/  8/  9 1015.9R
CAPE MAY NJ      1300   51 57   90/  7/ 10 1015.5R
LEWES DE         1300   52 55  110/  6/  9 1015.7R
15NM E FENWICK I 1350   51 51              1015.4S   4/11
OCEAN-CITY-INLET 1300   53 54   60/  3/  5 1014.4F
WACHAPREAGUE VA  1300   57 60   80/  3/  5 1015.1R
THOMAS POINT MD  1400   54 57  160/  7/  8 1016.1F
GOOSES REEF MD   1400   56 57  130/  8/ 10 1016.0F   1
COVE POINT MD    1300   55      10/  7/  9 1016.2R
SOLOMONS ISLAND  1300   57 59  350/  3/  5   N/A
BISHOPS HEAD MD  1300   58 58   40/  2/  5 1014.3R
PINEY POINT MD   1300           30/  4/  4   N/A
POTOMAC MD       1400   59 59   20/ 10/ 12 1014.4R   1
CAMBRIDGE MD     1300   54 60   40/  6/  7 1015.1R
LEWISETTA VA     1300   59 59   CALM  /  1 1014.4R
RAPPAHANNOCK LGT 1300          170/  8/  8 1015.4R
STINGRAY PT      1400   66 61  210/  4/  4 1015.0S   0
YORK RVR RNG VA  1300   67     240/ 13/ 15 1014.1R
YORKTOWN VA      1300   69 62  230/  8/ 13 1014.5R
JAMESTOWN VA     1400   71 66  220/  8/ 10   N/A     1
DOMINION TERM VA 1300   68     250/ 10/ 11 1015.2R
KIPTOPEKE VA     1300      60  270/  3/  5   N/A
CHES BAY BRIDGE  1300   68 61  210/ 15/ 17 1014.7R
CAPE HENRY VA    1300   70     230/ 12/ 17   N/A
CHESAPEAKE LGHT  1300   66     230/ 20/ 21 1015.7R
WILLOUBY STN VA  1300   67     240/ 15/ 16 1015.9R
CAPE HENRY BUOY  1312      58                N/A     3/11   2/11
CAPE CHARLES BUO 1326      57                N/A     3/12   2/12
OFFSHORE WE BUOY 1321      55                N/A     4/ 9   3/ 9
64NM E OF VA BCH 1350   59 53  210/ 14/ 16 1015.9R   5/11   3/11
DUCK PIER NC     1300   70 67  220/ 12/ 16 1016.1R
44100 DUCK FRF   1324      58                N/A     4/11   2/11
44056 DUCK FRF   1311      58                N/A     3/ 9   2/11
OREGON INLET NC  1300   69 67  190/ 14/ 15 1017.0R
HATTERAS NC      1300   71 67  220/  8/ 11 1017.8R
DIAMOND SHLS NC  1350   74 73  220/ 14/ 16 1018.1R   5/ 9   3/ 9
CAPE LOOKOUT NC  1300   73     220/  9/ 11 1017.9RC1F1C2F2C3F3C4F4C5F5C6F6C7F7C8M1C9!


USA.gov is the U.S. government's official web portal to all federal, state and local government web resources and services.